User: anonymous   Login
Location: The D'Auria's Ocala Star Observatory
(29.0276°N, 82.1742°W)
Time: 03:18:09
(UTC-04:00)
Language:

Abrixas rocket - Orbit

View from above orbital plane
View from above orbital plane
View from above satellite
View from above satellite

Ground track
Ground track

The orbit data is extracted from the following two-line orbital elements,

1 25723U 99022C   17292.11774967  .00007907  00000-0  11724-3 0  9995
2 25723  48.4157 225.8108 0009825 270.5995  89.3825 15.56073746 25788
Epoch (UTC): 19 October 2017 02:49:33
Eccentricity: 0.0009825
inclination: 48.4157°
perigee height: 392 km
apogee height: 405 km
right ascension of ascending node: 225.8108°
argument of perigee: 270.5995°
revolutions per day: 15.56073746
mean anomaly at epoch: 89.3825°
orbit number at epoch: 2578

The dashed part of the orbit path shows where the satellite is in the earth's shadow,  

DLR